Tracking 27122 objects as of 25-Mar-2023
HD Live streaming from Space Station
objects crossing your sky now

STARLINK-5268

Track STARLINK-5268 now!
10-day predictions
STARLINK-5268 is classified as:


NORAD ID: 54192
Int'l Code: 2022-141AM
Perigee: 545.9 km
Apogee: 547.4 km
Inclination: 53.2 °
Period: 95.4 minutes
Semi major axis: 6917 km
RCS: Unknown
Launch date: October 28, 2022
Source: United States (US)
Launch site: AIR FORCE WESTERN TEST RANGE (AFWTR)
Your satellite tracking list
Your tracking list is empty




NASA's NSSDC Master Catalog

Two Line Element Set (TLE):
1 54192U 22141AM  23083.66886346  .00025318  00000-0  15998-2 0  9997
2 54192  53.2178 166.7829 0001050 112.4600 247.6504 15.08916783 22806
Source of the keplerian elements: AFSPC